KE7JVX-3 Weather Reports


time (UTC)temp
C
wind
direction
speed
KPH
gust
KPH
rain 1hr
cm
rain 24hr
cm
rain mn
cm
humidity
%
barometer
mb
20260906035906 17 0 0.0 3.2 0.00 0.00 0.00 28 1016.7
20260906034907 16 0 0.0 3.2 0.00 0.00 0.00 28 1016.5
20260906033906 16 359 1.6 4.8 0.00 0.00 0.00 37 1016.5
20260906032906 15 359 3.2 6.4 0.00 0.00 0.00 43 1016.3
20260906031907 15 351 1.6 8.0 0.00 0.00 0.00 45 1016.2
20260906030906 15 318 1.6 14.5 0.00 0.00 0.00 50 1016.2
20260906025906 15 331 4.8 14.5 0.00 0.00 0.00 51 1016.1
20260906024907 15 338 9.7 17.7 0.00 0.00 0.00 51 1016.0
20260906023906 15 326 9.7 19.3 0.00 0.00 0.00 51 1016.0
20260906022907 15 318 6.4 16.1 0.00 0.00 0.00 51 1015.8
20260906021906 15 322 11.3 19.3 0.00 0.00 0.00 50 1015.8
20260906020906 15 318 14.5 22.5 0.00 0.00 0.00 50 1015.8
20260906015906 15 315 14.5 24.1 0.00 0.00 0.00 49 1015.7
20260906014908 16 315 16.1 25.7 0.00 0.00 0.00 49 1015.8
20260906013906 16 308 19.3 29.0 0.00 0.00 0.00 48 1015.8
20260906012906 16 304 17.7 32.2 0.00 0.00 0.00 47 1015.9
20260906011906 16 306 14.5 25.7 0.00 0.00 0.00 46 1015.9
20260906010906 17 308 16.1 30.6 0.00 0.00 0.00 45 1015.9
20260906005906 17 311 19.3 30.6 0.00 0.00 0.00 42 1016.0
20260906004929 17 298 16.1 29.0 0.00 0.00 0.00 41 1016.0
20260906004907 17 310 12.9 29.0 0.00 0.00 0.00 42 1016.0
20260906003906 17 298 16.1 29.0 0.00 0.00 0.00 41 1016.0
20260906002906 18 305 11.3 22.5 0.00 0.00 0.00 40 1016.0
20260906001907 18 312 12.9 22.5 0.00 0.00 0.00 38 1015.9
20260906000907 18 298 12.9 24.1 0.00 0.00 0.00 39 1015.9
20260905235908 18 319 9.7 30.6 0.00 0.00 0.00 38 1015.8
20260905234906 18 278 9.7 19.3 0.00 0.00 0.00 37 1015.9
20260905233906 18 278 11.3 25.7 0.00 0.00 0.00 39 1015.9
20260905232907 18 291 11.3 27.4 0.00 0.00 0.00 39 1015.8
20260905231906 18 332 11.3 25.7 0.00 0.00 0.00 37 1015.9
20260905230906 19 289 8.0 20.9 0.00 0.00 0.00 38 1015.9
20260905225906 19 302 9.7 16.1 0.00 0.00 0.00 39 1015.9
20260905224906 18 297 6.4 22.5 0.00 0.00 0.00 40 1016.0
20260905223906 18 295 1.6 22.5 0.00 0.00 0.00 37 1016.2
20260905222906 18 276 11.3 30.6 0.00 0.00 0.00 39 1016.2
20260905221906 18 260 9.7 25.7 0.00 0.00 0.00 39 1016.3
20260905220906 18 327 8.0 25.7 0.00 0.00 0.00 40 1016.3
20260905215907 18 262 9.7 27.4 0.00 0.00 0.00 39 1016.4
20260905214906 18 265 14.5 27.4 0.00 0.00 0.00 41 1016.5
20260905213906 18 285 14.5 29.0 0.00 0.00 0.00 41 1016.5
20260905212906 18 276 14.5 29.0 0.00 0.00 0.00 40 1016.7
20260905211908 18 284 14.5 27.4 0.00 0.00 0.00 41 1016.7
20260905210906 18 244 11.3 30.6 0.00 0.00 0.00 41 1016.8
20260905205907 18 268 12.9 29.0 0.00 0.00 0.00 43 1017.0
20260905204906 18 248 14.5 25.7 0.00 0.00 0.00 40 1017.0
20260905203906 18 271 11.3 22.5 0.00 0.00 0.00 40 1017.1
20260905202906 18 258 16.1 29.0 0.00 0.00 0.00 41 1017.2
20260905201909 18 284 16.1 30.6 0.00 0.00 0.00 41 1017.2
20260905200906 18 255 12.9 30.6 0.00 0.00 0.00 43 1017.4
20260905195906 18 265 16.1 24.1 0.00 0.00 0.00 41 1017.4
20260905194906 18 258 8.0 22.5 0.00 0.00 0.00 44 1017.5
20260905193906 18 258 11.3 20.9 0.00 0.00 0.00 38 1017.5
20260905192906 18 282 9.7 19.3 0.00 0.00 0.00 39 1017.6
20260905191907 18 263 4.8 12.9 0.00 0.00 0.00 42 1017.6
20260905190908 18 283 3.2 17.7 0.00 0.00 0.00 45 1017.7
20260905185906 18 294 8.0 19.3 0.00 0.00 0.00 44 1017.9
20260905184906 17 269 8.0 16.1 0.00 0.00 0.00 50 1017.9
20260905183906 17 287 6.4 14.5 0.00 0.00 0.00 48 1017.9
20260905182907 17 270 4.8 14.5 0.00 0.00 0.00 50 1018.0
20260905181906 16 231 8.0 16.1 0.00 0.00 0.00 51 1018.0
20260905180906 16 248 11.3 17.7 0.00 0.00 0.00 48 1018.0
20260905175906 17 250 8.0 16.1 0.00 0.00 0.00 46 1018.1
20260905174906 17 214 6.4 16.1 0.00 0.00 0.00 48 1018.0
20260905173906 16 252 6.4 16.1 0.00 0.00 0.00 48 1018.1
20260905172906 16 245 6.4 14.5 0.00 0.00 0.00 46 1018.1
20260905171906 16 266 3.2 12.9 0.00 0.00 0.00 49 1018.0
20260905170906 16 234 4.8 12.9 0.00 0.00 0.00 48 1018.0
20260905165906 16 254 6.4 12.9 0.00 0.00 0.00 48 1017.9
20260905164906 16 255 1.6 8.0 0.00 0.00 0.00 48 1017.9
20260905163906 16 0 0.0 12.9 0.00 0.00 0.00 47 1017.8
20260905162906 16 0 0.0 6.4 0.00 0.00 0.00 49 1017.7
20260905161906 16 0 0.0 6.4 0.00 0.00 0.00 50 1017.7
20260905160906 15 233 1.6 6.4 0.00 0.00 0.00 51 1017.7
20260905155906 15 233 1.6 6.4 0.00 0.00 0.00 51 1017.6
20260905154906 15 0 0.0 8.0 0.00 0.00 0.00 50 1017.5
20260905153906 15 233 1.6 6.4 0.00 0.00 0.00 49 1017.5
20260905152906 15 0 0.0 4.8 0.00 0.00 0.00 47 1017.5
20260905151906 15 0 0.0 4.8 0.00 0.00 0.00 48 1017.5
20260905150906 15 319 1.6 6.4 0.00 0.00 0.00 49 1017.4
20260905145906 15 0 0.0 4.8 0.00 0.00 0.00 49 1017.3
20260905144906 15 319 1.6 6.4 0.00 0.00 0.00 46 1017.3
20260905143906 15 319 1.6 8.0 0.00 0.00 0.00 44 1017.3
20260905142906 14 319 3.2 8.0 0.00 0.00 0.00 44 1017.2
20260905141906 14 328 3.2 8.0 0.00 0.00 0.00 43 1017.2
20260905140906 14 325 3.2 12.9 0.00 0.00 0.00 38 1017.1
20260905135906 14 312 6.4 11.3 0.00 0.00 0.00 37 1017.0
20260905134906 14 315 4.8 12.9 0.00 0.00 0.00 36 1016.9
20260905133906 13 314 4.8 11.3 0.00 0.00 0.00 38 1016.8
20260905132906 13 319 4.8 12.9 0.00 0.00 0.00 38 1016.7
20260905131906 13 314 8.0 16.1 0.00 0.00 0.00 38 1016.5
20260905130906 13 316 8.0 14.5 0.00 0.00 0.00 38 1016.5
20260905125906 13 310 8.0 19.3 0.00 0.00 0.00 39 1016.4
20260905124906 13 306 9.7 17.7 0.00 0.00 0.00 38 1016.4
20260905123910 13 313 8.0 16.1 0.00 0.00 0.00 38 1016.3
20260905122906 13 313 9.7 14.5 0.00 0.00 0.00 38 1016.3
20260905121906 13 306 9.7 17.7 0.00 0.00 0.00 45 1016.3
20260905120906 13 312 11.3 16.1 0.00 0.00 0.00 47 1016.3
20260905115906 13 307 11.3 17.7 0.00 0.00 0.00 44 1016.3
20260905114906 13 309 11.3 19.3 0.00 0.00 0.00 46 1016.3
20260905113906 13 305 12.9 19.3 0.00 0.00 0.00 47 1016.2
20260905112906 13 308 14.5 19.3 0.00 0.00 0.00 48 1016.2
20260905111907 13 306 12.9 19.3 0.00 0.00 0.00 49 1016.2
20260905110409 13 309 12.9 20.9 0.00 0.00 0.00 45 1016.3
20260905105407 13 306 12.9 20.9 0.00 0.00 0.00 45 1016.3
20260905104408 13 304 14.5 22.5 0.00 0.00 0.00 46 1016.3
20260905103408 13 303 16.1 22.5 0.00 0.00 0.00 48 1016.2
20260905102408 13 308 14.5 20.9 0.00 0.00 0.00 50 1016.3
20260905101412 13 308 14.5 22.5 0.00 0.00 0.00 52 1016.3
20260905100407 13 307 12.9 19.3 0.00 0.00 0.00 53 1016.3
20260905095407 13 311 12.9 19.3 0.00 0.00 0.00 53 1016.3
20260905094407 13 316 11.3 17.7 0.00 0.00 0.00 54 1016.2
20260905093413 13 312 14.5 19.3 0.00 0.00 0.00 55 1016.2
20260905092407 13 310 12.9 20.9 0.00 0.00 0.00 54 1016.3
20260905091410 13 312 14.5 22.5 0.00 0.00 0.00 54 1016.3
20260905090411 13 311 14.5 22.5 0.00 0.00 0.00 54 1016.3
20260905085407 13 310 12.9 24.1 0.00 0.00 0.00 54 1016.3
20260905084407 13 305 14.5 25.7 0.00 0.00 0.00 53 1016.3
20260905083407 13 310 16.1 22.5 0.00 0.00 0.00 53 1016.4
20260905082407 13 305 14.5 25.7 0.00 0.00 0.00 53 1016.5
20260905081408 13 302 12.9 24.1 0.00 0.00 0.00 52 1016.5
20260905080407 13 307 12.9 19.3 0.00 0.00 0.00 52 1016.6
20260905075408 13 304 12.9 17.7 0.00 0.00 0.00 51 1016.6
20260905074410 13 299 12.9 19.3 0.00 0.00 0.00 51 1016.7
20260905073407 13 297 12.9 20.9 0.00 0.00 0.00 51 1016.7
20260905072407 13 285 12.9 24.1 0.00 0.00 0.00 51 1016.7
20260905071407 13 276 14.5 20.9 0.00 0.00 0.00 52 1016.7
20260905070407 13 272 14.5 20.9 0.00 0.00 0.00 52 1016.7
20260905065407 14 271 14.5 22.5 0.00 0.10 0.00 51 1016.7
20260905064407 14 269 16.1 22.5 0.00 0.13 0.00 51 1016.6
20260905063407 14 264 14.5 24.1 0.00 0.13 0.00 51 1016.6
20260905062407 14 259 16.1 24.1 0.00 0.13 0.00 50 1016.7
20260905061407 14 251 14.5 24.1 0.00 0.13 0.00 49 1016.6
20260905060407 14 258 14.5 20.9 0.00 0.13 0.00 50 1016.6
20260905055407 14 263 16.1 24.1 0.00 0.13 0.00 50 1016.6
20260905054407 14 251 12.9 19.3 0.00 0.13 0.00 50 1016.7
20260905053408 14 257 11.3 19.3 0.00 0.13 0.00 50 1016.7
20260905052407 14 255 11.3 17.7 0.00 0.13 0.00 50 1016.8
20260905051407 14 266 12.9 20.9 0.00 0.13 0.00 49 1016.7
20260905050407 14 267 16.1 20.9 0.00 0.13 0.00 49 1016.7
20260905045407 14 270 14.5 20.9 0.00 0.13 0.00 49 1016.7
20260905044407 14 262 14.5 19.3 0.00 0.13 0.00 50 1016.7
20260905043407 14 266 12.9 19.3 0.00 0.13 0.00 50 1016.7
20260905042407 14 268 11.3 17.7 0.00 0.13 0.00 50 1016.8
20260905041407 14 259 9.7 17.7 0.00 0.13 0.00 51 1016.8
20260905040407 14 266 9.7 17.7 0.00 0.13 0.00 50 1016.8